ACA150 CYYC-CYYZ

Flight info

Callsign ACA150
Flight time 3h 27m
Altitude 33000
Route LOMLO Q961 DAPOP DCT ODGOV DCT EMLIK DCT UDBOX DCT AGLIN DCT OTNIK BOXUM7
Aircraft A321/M-SDE3FGHIRWY/LB1

Departure

Time 2026-04-27 21:38
Airport Calgary International Airport (CYYC)

Arrival

Time 2026-04-28 01:05
Airport Toronto Pearson International Airport (CYYZ)
Time Latitude Longitude Altitude Speed Heading
2026-04-27 21:16 51.12909 -114.00929 3559 ft 0 kts 95°
2026-04-27 21:26 51.12909 -114.00930 3559 ft 1 kts 95°
2026-04-27 21:27 51.12911 -114.00964 3559 ft 3 kts 95°
2026-04-27 21:27 51.12913 -114.00999 3553 ft 3 kts 95°
2026-04-27 21:27 51.12915 -114.01031 3558 ft 1 kts 95°
2026-04-27 21:27 51.12915 -114.01032 3558 ft 0 kts 95°
2026-04-27 21:32 51.12911 -114.01027 3553 ft 1 kts 134°
2026-04-27 21:32 51.12905 -114.01032 3556 ft 1 kts 201°
2026-04-27 21:32 51.12891 -114.01055 3557 ft 5 kts 224°
2026-04-27 21:33 51.12852 -114.01111 3556 ft 10 kts 220°
2026-04-27 21:33 51.12786 -114.01202 3559 ft 13 kts 221°
2026-04-27 21:33 51.12721 -114.01294 3556 ft 12 kts 221°
2026-04-27 21:33 51.12666 -114.01372 3557 ft 10 kts 221°
2026-04-27 21:34 51.12620 -114.01436 3556 ft 8 kts 221°
2026-04-27 21:34 51.12603 -114.01533 3559 ft 12 kts 269°
2026-04-27 21:34 51.12602 -114.01679 3559 ft 13 kts 270°
2026-04-27 21:34 51.12630 -114.01790 3559 ft 9 kts 336°
2026-04-27 21:35 51.12699 -114.01796 3559 ft 12 kts 360°
2026-04-27 21:35 51.12773 -114.01796 3559 ft 10 kts 360°
2026-04-27 21:35 51.12847 -114.01796 3559 ft 12 kts 360°
2026-04-27 21:35 51.12936 -114.01796 3559 ft 14 kts 360°
2026-04-27 21:36 51.13004 -114.01796 3559 ft 15 kts 360°
2026-04-27 21:36 51.13090 -114.01839 3556 ft 12 kts 303°
2026-04-27 21:36 51.13096 -114.01943 3559 ft 6 kts 269°
2026-04-27 21:36 51.13096 -114.01982 3560 ft 5 kts 269°
2026-04-27 21:37 51.13095 -114.02058 3561 ft 7 kts 269°
2026-04-27 21:37 51.13089 -114.02132 3561 ft 6 kts 238°
2026-04-27 21:37 51.13054 -114.02135 3560 ft 7 kts 178°
2026-04-27 21:37 51.12987 -114.02133 3557 ft 18 kts 179°
2026-04-27 21:38 51.12601 -114.02133 3557 ft 92 kts 181°
2026-04-27 21:38 51.11750 -114.02135 3557 ft 151 kts 180°
2026-04-27 21:38 51.10543 -114.02139 3672 ft 188 kts 179°
2026-04-27 21:38 51.09242 -114.02105 4619 ft 184 kts 177°
2026-04-27 21:39 51.07970 -114.02027 5523 ft 183 kts 176°
2026-04-27 21:39 51.06705 -114.01942 6258 ft 180 kts 176°
2026-04-27 21:39 51.05453 -114.01861 6692 ft 181 kts 176°
2026-04-27 21:39 51.04208 -114.01282 6859 ft 197 kts 145°
2026-04-27 21:40 51.03365 -113.99493 6999 ft 215 kts 106°
2026-04-27 21:40 51.03207 -113.97039 7143 ft 232 kts 93°
2026-04-27 21:40 51.03149 -113.94376 7270 ft 250 kts 92°
2026-04-27 21:40 51.03096 -113.91491 7413 ft 271 kts 92°
2026-04-27 21:41 51.03041 -113.88443 7885 ft 279 kts 91°
2026-04-27 21:41 51.02980 -113.85333 8441 ft 285 kts 91°
2026-04-27 21:41 51.02911 -113.82161 9026 ft 289 kts 90°
2026-04-27 21:41 51.02834 -113.78952 9626 ft 293 kts 90°
2026-04-27 21:42 51.02755 -113.75689 10132 ft 300 kts 90°
2026-04-27 21:42 51.02676 -113.72276 10268 ft 319 kts 90°
2026-04-27 21:42 51.02593 -113.68658 10411 ft 336 kts 90°
2026-04-27 21:42 51.02502 -113.64847 10553 ft 354 kts 90°
2026-04-27 21:43 51.02401 -113.60874 10977 ft 363 kts 90°
2026-04-27 21:43 51.02292 -113.56861 11527 ft 366 kts 91°
2026-04-27 21:43 51.02178 -113.52812 12083 ft 368 kts 91°
2026-04-27 21:43 51.02064 -113.48741 12657 ft 370 kts 90°
2026-04-27 21:44 51.01951 -113.44647 13228 ft 372 kts 90°
2026-04-27 21:44 51.01839 -113.40532 13771 ft 374 kts 90°
2026-04-27 21:44 51.01725 -113.36390 14255 ft 376 kts 90°
2026-04-27 21:44 51.01609 -113.32230 14717 ft 378 kts 90°
2026-04-27 21:45 51.01488 -113.28044 15163 ft 381 kts 90°
2026-04-27 21:45 51.01365 -113.23885 15587 ft 383 kts 90°
2026-04-27 21:45 51.01239 -113.19643 16014 ft 386 kts 90°
2026-04-27 21:45 51.01113 -113.15367 16441 ft 389 kts 90°
2026-04-27 21:46 51.00987 -113.11066 16858 ft 391 kts 90°
2026-04-27 21:46 51.00858 -113.06749 17278 ft 393 kts 90°
2026-04-27 21:46 51.00725 -113.02395 17683 ft 395 kts 90°
2026-04-27 21:46 51.00590 -112.98023 18075 ft 397 kts 90°
2026-04-27 21:47 51.00451 -112.93629 18450 ft 400 kts 90°
2026-04-27 21:47 51.00308 -112.89210 18765 ft 402 kts 90°
2026-04-27 21:47 51.00162 -112.84770 19090 ft 404 kts 90°
2026-04-27 21:47 51.00013 -112.80309 19405 ft 405 kts 91°
2026-04-27 21:48 50.99862 -112.75833 19715 ft 408 kts 91°
2026-04-27 21:48 50.99713 -112.71325 20043 ft 410 kts 91°
2026-04-27 21:48 50.99562 -112.66803 20364 ft 412 kts 91°
2026-04-27 21:48 50.99406 -112.62257 20690 ft 414 kts 91°
2026-04-27 21:49 50.99249 -112.57680 21004 ft 416 kts 91°
2026-04-27 21:49 50.99092 -112.53148 21320 ft 418 kts 91°
2026-04-27 21:49 50.98931 -112.48528 21639 ft 420 kts 91°
2026-04-27 21:49 50.98766 -112.43890 21974 ft 422 kts 91°
2026-04-27 21:50 50.98597 -112.39229 22298 ft 424 kts 91°
2026-04-27 21:50 50.98423 -112.34543 22640 ft 426 kts 91°
2026-04-27 21:50 50.98248 -112.29848 22962 ft 428 kts 91°
2026-04-27 21:50 50.98073 -112.25124 23276 ft 430 kts 91°
2026-04-27 21:51 50.97895 -112.20375 23587 ft 432 kts 91°
2026-04-27 21:51 50.97713 -112.15611 23870 ft 434 kts 91°
2026-04-27 21:51 50.97528 -112.10813 24118 ft 436 kts 91°
2026-04-27 21:51 50.97343 -112.06006 24382 ft 437 kts 91°
2026-04-27 21:52 50.97154 -112.01183 24635 ft 439 kts 91°
2026-04-27 21:52 50.96961 -111.96352 24891 ft 440 kts 91°
2026-04-27 21:52 50.96763 -111.91495 25150 ft 441 kts 91°
2026-04-27 21:52 50.96564 -111.86634 25405 ft 443 kts 91°
2026-04-27 21:53 50.96361 -111.81741 25649 ft 444 kts 91°
2026-04-27 21:53 50.96155 -111.76851 25893 ft 446 kts 91°
2026-04-27 21:53 50.95947 -111.71937 26141 ft 447 kts 91°
2026-04-27 21:53 50.95736 -111.67007 26371 ft 449 kts 91°
2026-04-27 21:54 50.95524 -111.62120 26607 ft 450 kts 91°
2026-04-27 21:54 50.95308 -111.57163 26838 ft 452 kts 91°
2026-04-27 21:54 50.95093 -111.52186 27062 ft 453 kts 91°
2026-04-27 21:54 50.94877 -111.47186 27279 ft 455 kts 91°
2026-04-27 21:55 50.94657 -111.42179 27479 ft 456 kts 91°
2026-04-27 21:55 50.94431 -111.37151 27675 ft 458 kts 91°
2026-04-27 21:55 50.94200 -111.32109 27862 ft 459 kts 91°
2026-04-27 21:55 50.93966 -111.27059 28040 ft 460 kts 91°
2026-04-27 21:56 50.93732 -111.21990 28223 ft 461 kts 91°
2026-04-27 21:56 50.93255 -111.11853 28703 ft 460 kts 91°
2026-04-27 21:56 50.93012 -111.06798 28944 ft 460 kts 91°
2026-04-27 21:57 50.92770 -111.01744 29169 ft 460 kts 91°
2026-04-27 21:57 50.92527 -110.96696 29398 ft 459 kts 91°
2026-04-27 21:57 50.92283 -110.91647 29629 ft 459 kts 92°
2026-04-27 21:57 50.92034 -110.86605 29863 ft 459 kts 92°
2026-04-27 21:58 50.91779 -110.81565 30084 ft 459 kts 92°
2026-04-27 21:58 50.91528 -110.76599 30286 ft 458 kts 92°
2026-04-27 21:58 50.91272 -110.71500 30465 ft 458 kts 92°
2026-04-27 21:58 50.91020 -110.66477 30642 ft 458 kts 92°
2026-04-27 21:59 50.90765 -110.61445 30826 ft 457 kts 92°
2026-04-27 21:59 50.90508 -110.56497 31002 ft 457 kts 92°
2026-04-27 21:59 50.90241 -110.51478 31184 ft 457 kts 92°
2026-04-27 21:59 50.89974 -110.46471 31364 ft 456 kts 92°
2026-04-27 22:00 50.89709 -110.41457 31533 ft 457 kts 92°
2026-04-27 22:00 50.89444 -110.36448 31694 ft 457 kts 92°
2026-04-27 22:00 50.89175 -110.31436 31858 ft 456 kts 92°
2026-04-27 22:00 50.88904 -110.26435 32030 ft 456 kts 92°
2026-04-27 22:01 50.88631 -110.21426 32203 ft 456 kts 92°
2026-04-27 22:01 50.88355 -110.16423 32373 ft 456 kts 92°
2026-04-27 22:01 50.88073 -110.11424 32535 ft 455 kts 92°
2026-04-27 22:01 50.87788 -110.06432 32695 ft 455 kts 93°
2026-04-27 22:02 50.87499 -110.01443 32862 ft 455 kts 93°
2026-04-27 22:02 50.87227 -109.96453 33030 ft 454 kts 92°
2026-04-27 22:02 50.87001 -109.91467 33179 ft 454 kts 91°
2026-04-27 22:03 50.86621 -109.81524 33187 ft 452 kts 91°
2026-04-27 22:03 50.86242 -109.71597 33193 ft 452 kts 91°
2026-04-27 22:04 50.85823 -109.61673 33189 ft 452 kts 92°
2026-04-27 22:04 50.85379 -109.51739 33194 ft 453 kts 92°
2026-04-27 22:05 50.84925 -109.41802 33193 ft 453 kts 92°
2026-04-27 22:05 50.84461 -109.31859 33197 ft 453 kts 92°
2026-04-27 22:06 50.83997 -109.21913 33190 ft 454 kts 92°
2026-04-27 22:06 50.83528 -109.11959 33193 ft 454 kts 92°
2026-04-27 22:07 50.83047 -109.01994 33196 ft 455 kts 92°
2026-04-27 22:07 50.82554 -108.92019 33195 ft 455 kts 93°
2026-04-27 22:08 50.82052 -108.82036 33194 ft 456 kts 93°
2026-04-27 22:08 50.81545 -108.72048 33198 ft 456 kts 93°
2026-04-27 22:09 50.81026 -108.62115 33196 ft 456 kts 93°
2026-04-27 22:09 50.80499 -108.52116 33202 ft 457 kts 94°
2026-04-27 22:10 50.79965 -108.42099 33197 ft 457 kts 94°
2026-04-27 22:10 50.79427 -108.32083 33204 ft 458 kts 94°
2026-04-27 22:11 50.78872 -108.22057 33203 ft 458 kts 94°
2026-04-27 22:11 50.78304 -108.12030 33203 ft 458 kts 94°
2026-04-27 22:12 50.77730 -108.01993 33198 ft 459 kts 94°
2026-04-27 22:12 50.77150 -107.91951 33200 ft 459 kts 94°
2026-04-27 22:13 50.76563 -107.81899 33195 ft 460 kts 95°
2026-04-27 22:13 50.75958 -107.71851 33197 ft 460 kts 95°
2026-04-27 22:14 50.75341 -107.61789 33194 ft 461 kts 95°
2026-04-27 22:14 50.74729 -107.51714 33190 ft 461 kts 95°
2026-04-27 22:15 50.74101 -107.41638 33204 ft 461 kts 95°
2026-04-27 22:15 50.73463 -107.31542 33191 ft 462 kts 95°
2026-04-27 22:16 50.72813 -107.21444 33192 ft 463 kts 96°
2026-04-27 22:16 50.72162 -107.11398 33207 ft 463 kts 96°
2026-04-27 22:17 50.71495 -107.01279 33208 ft 464 kts 96°
2026-04-27 22:17 50.70820 -106.91155 33213 ft 465 kts 96°
2026-04-27 22:18 50.70134 -106.81014 33208 ft 465 kts 96°
2026-04-27 22:18 50.69441 -106.70853 33211 ft 466 kts 96°
2026-04-27 22:19 50.68739 -106.60664 33213 ft 467 kts 97°
2026-04-27 22:19 50.68022 -106.50475 33222 ft 468 kts 97°
2026-04-27 22:20 50.67291 -106.40278 33212 ft 468 kts 97°
2026-04-27 22:20 50.66552 -106.30068 33209 ft 469 kts 97°
2026-04-27 22:21 50.65803 -106.19841 33209 ft 470 kts 97°
2026-04-27 22:21 50.65050 -106.09671 33216 ft 470 kts 97°
2026-04-27 22:22 50.64284 -105.99425 33216 ft 471 kts 98°
2026-04-27 22:22 50.63509 -105.89174 33227 ft 472 kts 98°
2026-04-27 22:23 50.62726 -105.78920 33213 ft 472 kts 98°
2026-04-27 22:23 50.61926 -105.68645 33213 ft 472 kts 98°
2026-04-27 22:24 50.61258 -105.60108 33210 ft 473 kts 98°
2026-04-27 22:24 50.60311 -105.48101 33216 ft 473 kts 99°
2026-04-27 22:25 50.59627 -105.39543 33216 ft 474 kts 98°
2026-04-27 22:25 50.58785 -105.27555 33228 ft 474 kts 98°
2026-04-27 22:26 50.58198 -105.18900 33233 ft 475 kts 98°
2026-04-27 22:26 50.57465 -105.08579 33201 ft 475 kts 98°
2026-04-27 22:27 50.56710 -104.98306 33188 ft 476 kts 99°
2026-04-27 22:27 50.55941 -104.87965 33152 ft 476 kts 99°
2026-04-27 22:28 50.55171 -104.77622 33144 ft 476 kts 99°
2026-04-27 22:28 50.54396 -104.67266 33124 ft 477 kts 99°
2026-04-27 22:29 50.53605 -104.56903 33133 ft 478 kts 99°
2026-04-27 22:29 50.52796 -104.46534 33153 ft 478 kts 99°
2026-04-27 22:30 50.51979 -104.36164 33158 ft 479 kts 99°
2026-04-27 22:30 50.51154 -104.25778 33189 ft 479 kts 100°
2026-04-27 22:31 50.50322 -104.15393 33204 ft 479 kts 100°
2026-04-27 22:31 50.49489 -104.05069 33203 ft 480 kts 100°
2026-04-27 22:32 50.48641 -103.94739 33215 ft 473 kts 99°
2026-04-27 22:32 50.47804 -103.84544 33228 ft 470 kts 99°
2026-04-27 22:33 50.46956 -103.74386 33225 ft 468 kts 99°
2026-04-27 22:33 50.46094 -103.64270 33218 ft 467 kts 100°
2026-04-27 22:34 50.45222 -103.54171 33208 ft 467 kts 100°
2026-04-27 22:34 50.44345 -103.44089 33201 ft 466 kts 100°
2026-04-27 22:35 50.43461 -103.34010 33190 ft 467 kts 100°
2026-04-27 22:35 50.42575 -103.23927 33189 ft 467 kts 101°
2026-04-27 22:36 50.41677 -103.13843 33185 ft 467 kts 101°
2026-04-27 22:36 50.40766 -103.03754 33185 ft 467 kts 101°
2026-04-27 22:37 50.39851 -102.93740 33184 ft 467 kts 101°
2026-04-27 22:37 50.38916 -102.83662 33176 ft 467 kts 101°
2026-04-27 22:38 50.37986 -102.73584 33175 ft 467 kts 102°
2026-04-27 22:38 50.37051 -102.63509 33177 ft 467 kts 102°
2026-04-27 22:39 50.36095 -102.53450 33162 ft 467 kts 102°
2026-04-27 22:39 50.35024 -102.43442 33162 ft 465 kts 105°
2026-04-27 22:40 50.33687 -102.33546 33157 ft 465 kts 107°
2026-04-27 22:40 50.32285 -102.23668 33162 ft 465 kts 107°
2026-04-27 22:41 50.30927 -102.13777 33158 ft 465 kts 106°
2026-04-27 22:41 50.29605 -102.03878 33156 ft 465 kts 106°
2026-04-27 22:42 50.28275 -101.93984 33157 ft 465 kts 107°
2026-04-27 22:42 50.26917 -101.84102 33156 ft 465 kts 107°
2026-04-27 22:43 50.25555 -101.74216 33158 ft 465 kts 107°
2026-04-27 22:43 50.24183 -101.64348 33156 ft 465 kts 107°
2026-04-27 22:44 50.22801 -101.54485 33156 ft 465 kts 107°
2026-04-27 22:44 50.21410 -101.44629 33147 ft 464 kts 107°
2026-04-27 22:45 50.20022 -101.34796 33134 ft 464 kts 107°
2026-04-27 22:45 50.18629 -101.25039 33137 ft 463 kts 108°
2026-04-27 22:46 50.17218 -101.15229 33125 ft 463 kts 108°
2026-04-27 22:46 50.15798 -101.05416 33130 ft 463 kts 108°
2026-04-27 22:47 50.14374 -100.95611 33134 ft 463 kts 108°
2026-04-27 22:47 50.12943 -100.85826 33126 ft 463 kts 108°
2026-04-27 22:48 50.11500 -100.76049 33122 ft 463 kts 108°
2026-04-27 22:48 50.10052 -100.66281 33121 ft 463 kts 108°
2026-04-27 22:49 50.08595 -100.56516 33118 ft 462 kts 108°
2026-04-27 22:49 50.07139 -100.46777 33112 ft 462 kts 108°
2026-04-27 22:50 50.05673 -100.37046 33098 ft 461 kts 109°
2026-04-27 22:50 50.04211 -100.27398 33069 ft 461 kts 109°
2026-04-27 22:51 50.02733 -100.17701 33061 ft 460 kts 109°
2026-04-27 22:51 50.01245 -100.08031 33041 ft 459 kts 109°
2026-04-27 22:52 49.99768 -99.98378 33040 ft 460 kts 108°
2026-04-27 22:52 49.98550 -99.88598 33031 ft 461 kts 105°
2026-04-27 22:53 49.97495 -99.78774 33048 ft 461 kts 105°
2026-04-27 22:53 49.96410 -99.68956 33054 ft 460 kts 106°
2026-04-27 22:54 49.95257 -99.59204 33064 ft 459 kts 107°
2026-04-27 22:54 49.94079 -99.49473 33067 ft 458 kts 107°
2026-04-27 22:55 49.92913 -99.39822 33077 ft 457 kts 107°
2026-04-27 22:55 49.91746 -99.30128 33078 ft 457 kts 107°
2026-04-27 22:56 49.90571 -99.20452 33078 ft 456 kts 107°
2026-04-27 22:56 49.89388 -99.10793 33075 ft 455 kts 107°
2026-04-27 22:57 49.88198 -99.01161 33075 ft 455 kts 107°
2026-04-27 22:57 49.86998 -98.91546 33084 ft 454 kts 108°
2026-04-27 22:58 49.85792 -98.81952 33084 ft 453 kts 108°
2026-04-27 22:58 49.84588 -98.72383 33073 ft 452 kts 108°
2026-04-27 22:59 49.83374 -98.62844 33067 ft 451 kts 109°
2026-04-27 22:59 49.82152 -98.53311 33064 ft 451 kts 109°
2026-04-27 23:00 49.80318 -98.39056 33055 ft 449 kts 109°
2026-04-27 23:00 49.79084 -98.29584 33054 ft 448 kts 110°
2026-04-27 23:01 49.77849 -98.20197 33050 ft 447 kts 110°
2026-04-27 23:01 49.76607 -98.10779 33046 ft 447 kts 110°
2026-04-27 23:02 49.75365 -98.01372 33046 ft 446 kts 110°
2026-04-27 23:02 49.74105 -97.91995 33050 ft 445 kts 110°
2026-04-27 23:03 49.72834 -97.82641 33045 ft 444 kts 110°
2026-04-27 23:03 49.71563 -97.73293 33036 ft 444 kts 110°
2026-04-27 23:04 49.70305 -97.64014 33029 ft 444 kts 110°
2026-04-27 23:04 49.69035 -97.54691 33017 ft 444 kts 110°
2026-04-27 23:05 49.67752 -97.45370 33010 ft 443 kts 111°
2026-04-27 23:05 49.66458 -97.36075 33008 ft 443 kts 111°
2026-04-27 23:06 49.65152 -97.26793 33004 ft 442 kts 111°
2026-04-27 23:06 49.63839 -97.17508 33002 ft 442 kts 111°
2026-04-27 23:07 49.62527 -97.08250 32996 ft 442 kts 111°
2026-04-27 23:07 49.61209 -96.98989 32988 ft 442 kts 111°
2026-04-27 23:08 49.59888 -96.89758 32987 ft 441 kts 111°
2026-04-27 23:08 49.58558 -96.80523 32979 ft 441 kts 111°
2026-04-27 23:09 49.57224 -96.71294 32966 ft 441 kts 111°
2026-04-27 23:09 49.55866 -96.62075 32964 ft 441 kts 111°
2026-04-27 23:10 49.54513 -96.52930 32957 ft 441 kts 111°
2026-04-27 23:10 49.53151 -96.43705 32953 ft 442 kts 111°
2026-04-27 23:11 49.51790 -96.34484 32944 ft 441 kts 111°
2026-04-27 23:11 49.50421 -96.25288 32937 ft 441 kts 111°
2026-04-27 23:12 49.49035 -96.16089 32934 ft 441 kts 111°
2026-04-27 23:12 49.47645 -96.06915 32927 ft 440 kts 111°
2026-04-27 23:13 49.46248 -95.97746 32919 ft 440 kts 111°
2026-04-27 23:13 49.45083 -95.90132 32923 ft 440 kts 111°
2026-04-27 23:14 49.43679 -95.80988 32917 ft 439 kts 111°
2026-04-27 23:14 49.42262 -95.71867 32918 ft 439 kts 111°
2026-04-27 23:15 49.40840 -95.62755 32916 ft 438 kts 111°
2026-04-27 23:15 49.39422 -95.53668 32914 ft 438 kts 111°
2026-04-27 23:16 49.38006 -95.44650 32927 ft 437 kts 111°
2026-04-27 23:16 49.36576 -95.35596 32917 ft 437 kts 111°
2026-04-27 23:17 49.35139 -95.26559 32914 ft 436 kts 111°
2026-04-27 23:17 49.33697 -95.17525 32906 ft 435 kts 111°
2026-04-27 23:18 49.32253 -95.08518 32899 ft 435 kts 111°
2026-04-27 23:18 49.30805 -94.99513 32896 ft 435 kts 111°
2026-04-27 23:19 49.29347 -94.90530 32894 ft 434 kts 111°
2026-04-27 23:19 49.27880 -94.81562 32888 ft 434 kts 111°
2026-04-27 23:20 49.26417 -94.72652 32890 ft 434 kts 111°
2026-04-27 23:20 49.24935 -94.63712 32888 ft 433 kts 111°
2026-04-27 23:21 49.23446 -94.54782 32887 ft 433 kts 111°
2026-04-27 23:21 49.21954 -94.45852 32879 ft 433 kts 111°
2026-04-27 23:22 49.20462 -94.36930 32872 ft 433 kts 111°
2026-04-27 23:22 49.18962 -94.28012 32864 ft 433 kts 111°
2026-04-27 23:23 49.17449 -94.19096 32858 ft 433 kts 111°
2026-04-27 23:23 49.15930 -94.10191 32852 ft 433 kts 111°
2026-04-27 23:24 49.14403 -94.01289 32852 ft 433 kts 111°
2026-04-27 23:24 49.12882 -93.92452 32847 ft 433 kts 111°
2026-04-27 23:25 49.11353 -93.83556 32841 ft 433 kts 111°
2026-04-27 23:25 49.09821 -93.74675 32843 ft 433 kts 111°
2026-04-27 23:26 49.08274 -93.65808 32852 ft 432 kts 111°
2026-04-27 23:26 49.06716 -93.56959 33045 ft 431 kts 111°
2026-04-27 23:27 49.05936 -93.52537 33170 ft 432 kts 111°
2026-04-27 23:27 49.05150 -93.48109 33303 ft 433 kts 111°
2026-04-27 23:27 49.04362 -93.43675 33472 ft 434 kts 111°
2026-04-27 23:27 49.03576 -93.39245 33668 ft 433 kts 111°
2026-04-27 23:28 49.02790 -93.34821 33861 ft 432 kts 111°
2026-04-27 23:28 49.02003 -93.30399 34019 ft 432 kts 111°
2026-04-27 23:28 49.01224 -93.26036 34132 ft 433 kts 111°
2026-04-27 23:28 49.00431 -93.21611 34249 ft 433 kts 111°
2026-04-27 23:29 48.99634 -93.17184 34361 ft 434 kts 111°
2026-04-27 23:29 48.98834 -93.12750 34484 ft 435 kts 111°
2026-04-27 23:29 48.98033 -93.08317 34587 ft 435 kts 111°
2026-04-27 23:29 48.97231 -93.03873 34738 ft 435 kts 111°
2026-04-27 23:30 48.95613 -92.94965 34802 ft 438 kts 111°
2026-04-27 23:30 48.93983 -92.86035 34803 ft 438 kts 111°
2026-04-27 23:31 48.92348 -92.77106 34790 ft 438 kts 111°
2026-04-27 23:31 48.90699 -92.68182 34788 ft 438 kts 111°
2026-04-27 23:32 48.89052 -92.59321 34774 ft 438 kts 111°
2026-04-27 23:32 48.87399 -92.50416 34767 ft 438 kts 111°
2026-04-27 23:33 48.85735 -92.41507 34761 ft 438 kts 111°
2026-04-27 23:33 48.84064 -92.32598 34757 ft 438 kts 111°
2026-04-27 23:34 48.82380 -92.23712 34749 ft 438 kts 111°
2026-04-27 23:34 48.80692 -92.14816 34745 ft 439 kts 111°
2026-04-27 23:35 48.79000 -92.05928 34735 ft 439 kts 111°
2026-04-27 23:35 48.77288 -91.97050 34730 ft 439 kts 111°
2026-04-27 23:36 48.75582 -91.88170 34720 ft 439 kts 111°
2026-04-27 23:36 48.73881 -91.79350 34718 ft 439 kts 111°
2026-04-27 23:37 48.72152 -91.70469 34717 ft 439 kts 111°
2026-04-27 23:37 48.70425 -91.61599 34715 ft 439 kts 111°
2026-04-27 23:38 48.68687 -91.52725 34717 ft 440 kts 111°
2026-04-27 23:38 48.66936 -91.43858 34712 ft 440 kts 111°
2026-04-27 23:39 48.65184 -91.34993 34718 ft 439 kts 111°
2026-04-27 23:39 48.63428 -91.26139 34717 ft 439 kts 112°
2026-04-27 23:40 48.61661 -91.17302 34723 ft 439 kts 112°
2026-04-27 23:40 48.59890 -91.08476 34721 ft 439 kts 112°
2026-04-27 23:41 48.58113 -90.99667 34718 ft 438 kts 112°
2026-04-27 23:41 48.56332 -90.90859 34717 ft 438 kts 112°
2026-04-27 23:42 48.54557 -90.82130 34721 ft 438 kts 112°
2026-04-27 23:42 48.52767 -90.73357 34717 ft 437 kts 112°
2026-04-27 23:43 48.50976 -90.64591 34707 ft 437 kts 112°
2026-04-27 23:43 48.49170 -90.55852 34710 ft 436 kts 112°
2026-04-27 23:44 48.47363 -90.47124 34709 ft 436 kts 113°
2026-04-27 23:44 48.45549 -90.38412 34712 ft 436 kts 113°
2026-04-27 23:45 48.43735 -90.29702 34711 ft 435 kts 113°
2026-04-27 23:45 48.41914 -90.21013 34721 ft 435 kts 113°
2026-04-27 23:46 48.40084 -90.12332 34722 ft 435 kts 113°
2026-04-27 23:46 48.38262 -90.03717 34724 ft 434 kts 113°
2026-04-27 23:47 48.36430 -89.95066 34726 ft 434 kts 113°
2026-04-27 23:47 48.34588 -89.86422 34729 ft 434 kts 113°
2026-04-27 23:48 48.32742 -89.77792 34726 ft 434 kts 114°
2026-04-27 23:48 48.30890 -89.69171 34728 ft 433 kts 114°
2026-04-27 23:49 48.29028 -89.60565 34721 ft 433 kts 114°
2026-04-27 23:49 48.27164 -89.51968 34724 ft 433 kts 114°
2026-04-27 23:50 48.25268 -89.43396 34722 ft 431 kts 115°
2026-04-27 23:50 48.23065 -89.35061 34721 ft 429 kts 119°
2026-04-27 23:51 48.20650 -89.26901 34718 ft 428 kts 120°
2026-04-27 23:51 48.18236 -89.18746 34719 ft 428 kts 119°
2026-04-27 23:52 48.15887 -89.10602 34717 ft 428 kts 118°
2026-04-27 23:52 48.13545 -89.02399 34713 ft 428 kts 118°
2026-04-27 23:53 48.11196 -88.94223 34707 ft 428 kts 119°
2026-04-27 23:53 48.08829 -88.86054 34695 ft 427 kts 119°
2026-04-27 23:54 48.06453 -88.77906 34688 ft 427 kts 119°
2026-04-27 23:54 48.04076 -88.69763 34686 ft 428 kts 119°
2026-04-27 23:55 48.01693 -88.61623 34678 ft 428 kts 119°
2026-04-27 23:55 47.99309 -88.53488 34676 ft 428 kts 119°
2026-04-27 23:56 47.96913 -88.45365 34671 ft 428 kts 120°
2026-04-27 23:56 47.94528 -88.37298 34669 ft 428 kts 120°
2026-04-27 23:57 47.92119 -88.29175 34669 ft 428 kts 120°
2026-04-27 23:57 47.89702 -88.21055 34672 ft 428 kts 120°
2026-04-27 23:58 47.87283 -88.12941 34676 ft 429 kts 120°
2026-04-27 23:58 47.84854 -88.04835 34672 ft 429 kts 120°
2026-04-27 23:59 47.82422 -87.96731 34675 ft 429 kts 120°
2026-04-27 23:59 47.79972 -87.88626 34691 ft 430 kts 120°
2026-04-28 00:00 47.77516 -87.80517 34685 ft 430 kts 120°
2026-04-28 00:00 47.75067 -87.72454 34691 ft 431 kts 120°
2026-04-28 00:01 47.72582 -87.64292 34689 ft 431 kts 121°
2026-04-28 00:01 47.70102 -87.56170 34681 ft 432 kts 121°
2026-04-28 00:02 47.67631 -87.48094 34688 ft 433 kts 121°
2026-04-28 00:02 47.65130 -87.39959 34695 ft 433 kts 121°
2026-04-28 00:03 47.62621 -87.31829 34688 ft 434 kts 122°
2026-04-28 00:03 47.60095 -87.23679 34684 ft 435 kts 122°
2026-04-28 00:04 47.56298 -87.11438 34682 ft 437 kts 122°
2026-04-28 00:05 47.53744 -87.03269 34679 ft 437 kts 122°
2026-04-28 00:05 47.51184 -86.95095 34679 ft 438 kts 122°
2026-04-28 00:06 47.48617 -86.86920 34680 ft 439 kts 122°
2026-04-28 00:06 47.46035 -86.78738 34684 ft 439 kts 123°
2026-04-28 00:07 47.43445 -86.70536 34684 ft 441 kts 123°
2026-04-28 00:07 47.41290 -86.63719 34686 ft 441 kts 123°
2026-04-28 00:08 47.38681 -86.55510 34688 ft 442 kts 123°
2026-04-28 00:08 47.36063 -86.47297 34693 ft 443 kts 123°
2026-04-28 00:09 47.33434 -86.39076 34695 ft 444 kts 123°
2026-04-28 00:09 47.30790 -86.30841 34698 ft 445 kts 123°
2026-04-28 00:10 47.28130 -86.22582 34704 ft 446 kts 123°
2026-04-28 00:10 47.25463 -86.14324 34706 ft 447 kts 123°
2026-04-28 00:11 47.22780 -86.06048 34712 ft 448 kts 123°
2026-04-28 00:11 47.20084 -85.97770 34718 ft 449 kts 123°
2026-04-28 00:12 47.17373 -85.89486 34731 ft 450 kts 123°
2026-04-28 00:12 47.14673 -85.81241 34732 ft 451 kts 123°
2026-04-28 00:13 47.11942 -85.72917 34733 ft 452 kts 123°
2026-04-28 00:13 47.09205 -85.64600 34740 ft 453 kts 123°
2026-04-28 00:14 47.06456 -85.56272 34744 ft 454 kts 123°
2026-04-28 00:14 47.03694 -85.47948 34755 ft 454 kts 123°
2026-04-28 00:15 47.00917 -85.39618 34764 ft 455 kts 123°
2026-04-28 00:15 46.98140 -85.31291 34767 ft 456 kts 123°
2026-04-28 00:16 46.95351 -85.22948 34774 ft 456 kts 124°
2026-04-28 00:16 46.92551 -85.14615 34777 ft 457 kts 124°
2026-04-28 00:17 46.89755 -85.06323 34782 ft 457 kts 124°
2026-04-28 00:17 46.86933 -84.97980 34789 ft 458 kts 124°
2026-04-28 00:18 46.84097 -84.89631 34806 ft 459 kts 124°
2026-04-28 00:18 46.81248 -84.81281 34807 ft 460 kts 124°
2026-04-28 00:19 46.78393 -84.72917 34833 ft 461 kts 124°
2026-04-28 00:19 46.75534 -84.64552 34837 ft 461 kts 124°
2026-04-28 00:20 46.72652 -84.56169 34841 ft 462 kts 124°
2026-04-28 00:20 46.69767 -84.47787 34845 ft 463 kts 124°
2026-04-28 00:21 46.66869 -84.39390 34852 ft 464 kts 124°
2026-04-28 00:21 46.63955 -84.30990 34853 ft 465 kts 124°
2026-04-28 00:22 46.61051 -84.22633 34857 ft 466 kts 124°
2026-04-28 00:22 46.58115 -84.14221 34860 ft 467 kts 124°
2026-04-28 00:23 46.55163 -84.05794 34872 ft 468 kts 124°
2026-04-28 00:23 46.52203 -83.97371 34890 ft 469 kts 124°
2026-04-28 00:24 46.49231 -83.88945 34907 ft 469 kts 124°
2026-04-28 00:24 46.46253 -83.80513 34917 ft 470 kts 124°
2026-04-28 00:25 46.43266 -83.72066 34922 ft 471 kts 124°
2026-04-28 00:25 46.40208 -83.63675 34922 ft 467 kts 129°
2026-04-28 00:26 46.36501 -83.56033 34926 ft 464 kts 133°
2026-04-28 00:26 46.32785 -83.48460 34929 ft 465 kts 133°
2026-04-28 00:27 46.29047 -83.40812 34935 ft 466 kts 132°
2026-04-28 00:27 46.25297 -83.33165 34937 ft 467 kts 133°
2026-04-28 00:28 46.21523 -83.25515 34940 ft 467 kts 133°
2026-04-28 00:28 46.17740 -83.17888 34939 ft 467 kts 133°
2026-04-28 00:29 46.13938 -83.10258 34940 ft 468 kts 133°
2026-04-28 00:29 46.10161 -83.02676 34946 ft 468 kts 133°
2026-04-28 00:30 46.06357 -82.95053 34946 ft 468 kts 132°
2026-04-28 00:30 46.02541 -82.87429 34935 ft 469 kts 133°
2026-04-28 00:31 45.98736 -82.79848 34927 ft 470 kts 132°
2026-04-28 00:31 45.94898 -82.72226 34916 ft 470 kts 132°
2026-04-28 00:32 45.91055 -82.64631 34908 ft 470 kts 133°
2026-04-28 00:32 45.87201 -82.57032 34909 ft 471 kts 132°
2026-04-28 00:33 45.83364 -82.49478 34918 ft 471 kts 132°
2026-04-28 00:33 45.79500 -82.41868 34929 ft 472 kts 132°
2026-04-28 00:34 45.75644 -82.34307 34955 ft 472 kts 132°
2026-04-28 00:34 45.71751 -82.26699 34968 ft 473 kts 132°
2026-04-28 00:35 45.67856 -82.19107 34996 ft 473 kts 132°
2026-04-28 00:35 45.63945 -82.11503 35009 ft 474 kts 132°
2026-04-28 00:36 45.59778 -82.04355 35011 ft 465 kts 143°
2026-04-28 00:36 45.55064 -81.98047 35014 ft 465 kts 143°
2026-04-28 00:37 45.50360 -81.91757 35009 ft 465 kts 143°
2026-04-28 00:37 45.45633 -81.85440 35009 ft 465 kts 143°
2026-04-28 00:38 45.40928 -81.79153 35003 ft 466 kts 143°
2026-04-28 00:38 45.36189 -81.72854 35005 ft 466 kts 143°
2026-04-28 00:39 45.31439 -81.66564 35003 ft 466 kts 143°
2026-04-28 00:39 45.26685 -81.60270 35001 ft 467 kts 143°
2026-04-28 00:40 45.21930 -81.53987 34999 ft 467 kts 143°
2026-04-28 00:40 45.17189 -81.47738 34992 ft 468 kts 143°
2026-04-28 00:41 45.12416 -81.41464 34993 ft 468 kts 143°
2026-04-28 00:41 45.07624 -81.35190 34991 ft 468 kts 143°
2026-04-28 00:42 45.02833 -81.28936 34992 ft 469 kts 143°
2026-04-28 00:42 44.98039 -81.22671 34993 ft 470 kts 143°
2026-04-28 00:43 44.93236 -81.16420 34856 ft 469 kts 143°
2026-04-28 00:43 44.90809 -81.13274 33747 ft 478 kts 142°
2026-04-28 00:43 44.88354 -81.10102 32645 ft 485 kts 142°
2026-04-28 00:43 44.85872 -81.06890 31923 ft 482 kts 141°
2026-04-28 00:44 44.83421 -81.03710 31371 ft 476 kts 141°
2026-04-28 00:44 44.80993 -81.00559 30761 ft 472 kts 141°
2026-04-28 00:44 44.78586 -80.97440 30177 ft 468 kts 141°
2026-04-28 00:44 44.76211 -80.94371 29548 ft 464 kts 141°
2026-04-28 00:45 44.73847 -80.91324 28981 ft 458 kts 141°
2026-04-28 00:45 44.71505 -80.88315 28416 ft 453 kts 141°
2026-04-28 00:45 44.69188 -80.85340 27865 ft 448 kts 141°
2026-04-28 00:45 44.66902 -80.82408 27320 ft 443 kts 141°
2026-04-28 00:46 44.64642 -80.79509 26785 ft 438 kts 141°
2026-04-28 00:46 44.62402 -80.76638 26258 ft 433 kts 141°
2026-04-28 00:46 44.60187 -80.73804 25754 ft 429 kts 141°
2026-04-28 00:46 44.58022 -80.71035 25265 ft 424 kts 141°
2026-04-28 00:47 44.55854 -80.68266 24789 ft 419 kts 141°
2026-04-28 00:47 44.53717 -80.65537 24309 ft 413 kts 141°
2026-04-28 00:47 44.51604 -80.62843 23851 ft 407 kts 141°
2026-04-28 00:47 44.49521 -80.60195 23352 ft 401 kts 141°
2026-04-28 00:48 44.47474 -80.57592 22906 ft 394 kts 141°
2026-04-28 00:48 44.45466 -80.55038 22477 ft 386 kts 141°
2026-04-28 00:48 44.43486 -80.52525 22046 ft 380 kts 142°
2026-04-28 00:48 44.41541 -80.50061 21626 ft 374 kts 142°
2026-04-28 00:49 44.39624 -80.47640 21209 ft 369 kts 142°
2026-04-28 00:49 44.37730 -80.45253 20781 ft 364 kts 142°
2026-04-28 00:49 44.35859 -80.42895 20354 ft 360 kts 142°
2026-04-28 00:49 44.34008 -80.40563 19924 ft 357 kts 142°
2026-04-28 00:50 44.32178 -80.38251 19456 ft 354 kts 141°
2026-04-28 00:50 44.30350 -80.35940 18971 ft 353 kts 141°
2026-04-28 00:50 44.28534 -80.33644 18537 ft 350 kts 141°
2026-04-28 00:50 44.26734 -80.31367 18074 ft 347 kts 141°
2026-04-28 00:51 44.24956 -80.29125 17640 ft 343 kts 141°
2026-04-28 00:51 44.23195 -80.26919 17220 ft 338 kts 141°
2026-04-28 00:51 44.21454 -80.24747 16804 ft 334 kts 142°
2026-04-28 00:51 44.19757 -80.22631 16416 ft 330 kts 141°
2026-04-28 00:52 44.18060 -80.20504 16020 ft 326 kts 141°
2026-04-28 00:52 44.16383 -80.18395 15626 ft 323 kts 141°
2026-04-28 00:52 44.14723 -80.16308 15229 ft 320 kts 141°
2026-04-28 00:52 44.13080 -80.14244 14840 ft 318 kts 141°
2026-04-28 00:53 44.11442 -80.12195 14431 ft 316 kts 143°
2026-04-28 00:53 44.09621 -80.10432 13609 ft 323 kts 151°
2026-04-28 00:53 44.07691 -80.08759 12923 ft 328 kts 151°
2026-04-28 00:53 44.05767 -80.07096 12508 ft 323 kts 151°
2026-04-28 00:54 44.03873 -80.05458 12093 ft 319 kts 151°
2026-04-28 00:54 44.02002 -80.03844 11681 ft 315 kts 150°
2026-04-28 00:54 44.00154 -80.02251 11283 ft 311 kts 150°
2026-04-28 00:54 43.98327 -80.00679 10881 ft 307 kts 150°
2026-04-28 00:55 43.96519 -79.99121 10485 ft 303 kts 150°
2026-04-28 00:55 43.94760 -79.97599 10318 ft 292 kts 150°
2026-04-28 00:55 43.93084 -79.96148 10071 ft 285 kts 150°
2026-04-28 00:55 43.91399 -79.94695 9884 ft 280 kts 150°
2026-04-28 00:56 43.89767 -79.93294 9753 ft 279 kts 151°
2026-04-28 00:56 43.88108 -79.91873 9387 ft 280 kts 151°
2026-04-28 00:56 43.86453 -79.90454 8920 ft 280 kts 150°
2026-04-28 00:56 43.84807 -79.89040 8566 ft 275 kts 150°
2026-04-28 00:57 43.83179 -79.87642 8108 ft 275 kts 150°
2026-04-28 00:57 43.81565 -79.86257 7744 ft 271 kts 150°
2026-04-28 00:57 43.80503 -79.85347 7471 ft 270 kts 150°
2026-04-28 00:57 43.78915 -79.83987 7015 ft 267 kts 151°
2026-04-28 00:58 43.77347 -79.82646 6549 ft 261 kts 151°
2026-04-28 00:58 43.75840 -79.81353 6347 ft 249 kts 151°
2026-04-28 00:58 43.74402 -79.80120 6218 ft 237 kts 151°
2026-04-28 00:58 43.73035 -79.78988 6130 ft 220 kts 157°
2026-04-28 00:59 43.71594 -79.78589 6024 ft 209 kts 184°
2026-04-28 00:59 43.70220 -79.79182 5784 ft 209 kts 209°
2026-04-28 00:59 43.69154 -79.80541 5513 ft 207 kts 220°
2026-04-28 00:59 43.68179 -79.81962 5252 ft 202 kts 220°
2026-04-28 01:00 43.67216 -79.83359 4983 ft 200 kts 219°
2026-04-28 01:00 43.66228 -79.84702 4718 ft 196 kts 211°
2026-04-28 01:00 43.65093 -79.85571 4479 ft 179 kts 194°
2026-04-28 01:00 43.63918 -79.85905 4267 ft 167 kts 180°
2026-04-28 01:01 43.62784 -79.85780 4056 ft 162 kts 166°
2026-04-28 01:01 43.61735 -79.85247 3872 ft 161 kts 153°
2026-04-28 01:01 43.60825 -79.84350 3668 ft 162 kts 140°
2026-04-28 01:01 43.60116 -79.83140 3472 ft 164 kts 126°
2026-04-28 01:02 43.59661 -79.81677 3260 ft 169 kts 112°
2026-04-28 01:02 43.59514 -79.80073 3058 ft 173 kts 97°
2026-04-28 01:02 43.59707 -79.78431 2856 ft 173 kts 81°
2026-04-28 01:02 43.60235 -79.76925 2633 ft 178 kts 64°
2026-04-28 01:03 43.61062 -79.75621 2406 ft 182 kts 54°
2026-04-28 01:03 43.61926 -79.74381 2159 ft 175 kts 54°
2026-04-28 01:03 43.62722 -79.73240 1930 ft 160 kts 54°
2026-04-28 01:03 43.63472 -79.72163 1723 ft 152 kts 54°
2026-04-28 01:04 43.64191 -79.71116 1527 ft 148 kts 54°
2026-04-28 01:04 43.64895 -79.70082 1313 ft 146 kts 52°
2026-04-28 01:04 43.65589 -79.69060 1122 ft 145 kts 50°
2026-04-28 01:04 43.66290 -79.68048 943 ft 145 kts 49°
2026-04-28 01:05 43.66982 -79.67050 740 ft 143 kts 49°
2026-04-28 01:05 43.67660 -79.66060 569 ft 140 kts 50°
2026-04-28 01:05 43.68225 -79.65230 570 ft 90 kts 46°
2026-04-28 01:05 43.68537 -79.64780 568 ft 43 kts 45°
2026-04-28 01:06 43.68707 -79.64494 569 ft 28 kts 65°
2026-04-28 01:06 43.68753 -79.64303 568 ft 19 kts 80°
2026-04-28 01:06 43.68769 -79.64163 566 ft 13 kts 78°
2026-04-28 01:06 43.68781 -79.64088 574 ft 6 kts 77°
2026-04-28 01:07 43.68788 -79.64049 569 ft 3 kts 73°
2026-04-28 01:07 43.68792 -79.64031 572 ft 3 kts 72°
2026-04-28 01:07 43.68805 -79.63989 570 ft 5 kts 53°
2026-04-28 01:07 43.68838 -79.63936 574 ft 9 kts 44°
2026-04-28 01:08 43.68900 -79.63848 571 ft 16 kts 46°
2026-04-28 01:08 43.68975 -79.63740 572 ft 15 kts 46°
2026-04-28 01:08 43.69034 -79.63636 569 ft 12 kts 83°
2026-04-28 01:08 43.68984 -79.63551 567 ft 13 kts 137°
2026-04-28 01:09 43.68899 -79.63443 566 ft 18 kts 139°
2026-04-28 01:09 43.68812 -79.63325 563 ft 18 kts 138°
2026-04-28 01:09 43.68720 -79.63207 563 ft 18 kts 137°
2026-04-28 01:09 43.68627 -79.63086 562 ft 19 kts 137°
2026-04-28 01:10 43.68535 -79.62967 563 ft 17 kts 136°
2026-04-28 01:10 43.68449 -79.62855 563 ft 17 kts 136°
2026-04-28 01:10 43.68368 -79.62747 567 ft 15 kts 136°
2026-04-28 01:10 43.68292 -79.62649 571 ft 15 kts 137°
2026-04-28 01:11 43.68214 -79.62548 564 ft 16 kts 136°
2026-04-28 01:11 43.68127 -79.62438 569 ft 18 kts 137°
2026-04-28 01:11 43.68032 -79.62316 569 ft 19 kts 137°
2026-04-28 01:11 43.67953 -79.62210 563 ft 14 kts 135°
2026-04-28 01:12 43.67911 -79.62128 568 ft 9 kts 87°
2026-04-28 01:12 43.67951 -79.62054 565 ft 10 kts 45°
2026-04-28 01:12 43.67983 -79.61977 561 ft 9 kts 89°
2026-04-28 01:12 43.67946 -79.61921 561 ft 8 kts 153°
2026-04-28 01:13 43.67901 -79.61882 564 ft 7 kts 126°
2026-04-28 01:13 43.67910 -79.61813 564 ft 0 kts 72°
2026-04-28 01:13 43.67911 -79.61811 564 ft 2 kts 72°
2026-04-28 01:14 43.67916 -79.61787 569 ft 0 kts 72°
2026-04-28 01:14 43.67919 -79.61775 565 ft 2 kts 72°
2026-04-28 01:14 43.67919 -79.61774 565 ft 0 kts 72°